Погода в Анге

Россия / Иркутская область     53°59′00″N   106°11′09″E
темп.,
°C
ветер,
м/с
пор.,
м/с
влажн.,
%
обл.,
%
осадки,
мм/ч
давл.,
гПа
погр.,
м
17 октября, вс
вс1723:000зюз2353100 0.0 102775
02:00−1зюз2257100 0.0 102535
05:00−2зсз2268100 0.0 102539
08:00−2зсз278762 0.1 1026376
11:00+2ссз685694 0.0 10261322
14:00+4ссз464292 0.0 10271627
17:00+2ссз58495 0.0 1028441
20:00−3ссв22754 0.0 103128
18 октября, пн
пн1823:00−4с11835 0.0 103310
02:00−5ссв11855 0.0 103310
05:00−5всв11895 0.0 103312
08:00−5в11915 0.0 103415
11:00−1юв11645 0.0 1032447
14:00+2ю11460 0.0 1030592
17:00+1зюз01495 0.0 102910
20:00−2всв11605 0.0 103010
19 октября, вт
вт1923:00−3вюв01640 0.0 103010
02:00−4юв01660 0.0 103010
05:00−4ю11695 0.0 103010
08:00−5ююз01700 0.0 103110
11:00+1юз11460 0.0 1030283
14:00+5зюз12380 0.0 1028547
17:00+3ю114832 0.0 102711
20:000ссв005698 0.0 102910
20 октября, ср
ср2023:00−1ююз006293 0.0 103010
02:00−1ююз016897 0.0 103010
05:00−2юз017477 0.0 103010
08:00−2юз118079 0.0 103110
11:00+2зюз126612 0.0 1031390
14:00+5зсз135565 0.0 10291099
17:00+4ююз116073 0.0 102811
20:00+1всв017378 0.0 102910
21 октября, чт
чт2123:00+1юв117599 0.0 102911
02:000ююв117937 0.0 102911
05:00−2вюв11865 0.0 102910
08:00−2в11875 0.0 102910
11:00+3юв12635 0.0 1027328
14:00+6юв22528 0.0 1024607
17:00+5вюв11605 0.0 102210
20:00+2в117520 0.0 102310